MAS775 VTBS-WMKK

Flight info

Callsign MAS775
Flight time 1h 36m
Altitude 38000
Route BUT1G BUT Y11 PASVA Y514 EMPUR G466 PULIP PULIP1J
Aircraft MD11/H-SDE1E2E3FGHIJ2J3J4J5M1RWXY/LB1D1

Departure

Time 2026-05-04 15:28
Airport Suvarnabhumi Airport (VTBS)

Arrival

Time 2026-05-04 17:04
Airport Kuala Lumpur International Airport (WMKK)
Time Latitude Longitude Altitude Speed Heading
2026-05-04 14:59 13.69232 100.74424 15 ft 0 kts 14°
2026-05-04 15:17 13.69214 100.74419 16 ft 2 kts 14°
2026-05-04 15:17 13.69200 100.74416 16 ft 2 kts 14°
2026-05-04 15:18 13.69185 100.74412 16 ft 2 kts 14°
2026-05-04 15:18 13.69171 100.74408 16 ft 2 kts
2026-05-04 15:18 13.69160 100.74410 16 ft 2 kts 337°
2026-05-04 15:19 13.69143 100.74429 16 ft 2 kts 284°
2026-05-04 15:19 13.69139 100.74447 16 ft 1 kts 283°
2026-05-04 15:19 13.69138 100.74451 16 ft 0 kts 284°
2026-05-04 15:22 13.69148 100.74411 15 ft 0 kts 284°
2026-05-04 15:23 13.69152 100.74392 15 ft 6 kts 284°
2026-05-04 15:23 13.69170 100.74319 16 ft 13 kts 284°
2026-05-04 15:23 13.69193 100.74230 16 ft 6 kts 293°
2026-05-04 15:23 13.69243 100.74214 15 ft 9 kts
2026-05-04 15:24 13.69435 100.74263 16 ft 17 kts 14°
2026-05-04 15:24 13.69706 100.74335 15 ft 23 kts 15°
2026-05-04 15:25 13.69874 100.74381 16 ft 26 kts 15°
2026-05-04 15:25 13.70030 100.74420 16 ft 20 kts 14°
2026-05-04 15:25 13.70180 100.74458 15 ft 23 kts 14°
2026-05-04 15:26 13.70339 100.74430 16 ft 14 kts 285°
2026-05-04 15:26 13.70324 100.74325 16 ft 16 kts 230°
2026-05-04 15:26 13.70013 100.74224 16 ft 49 kts 194°
2026-05-04 15:27 13.69424 100.74069 16 ft 123 kts 194°
2026-05-04 15:27 13.67048 100.73441 546 ft 196 kts 193°
2026-05-04 15:28 13.64471 100.72765 2251 ft 193 kts 190°
2026-05-04 15:28 13.63193 100.72430 3035 ft 195 kts 192°
2026-05-04 15:28 13.60335 100.71714 4193 ft 226 kts 186°
2026-05-04 15:29 13.58746 100.71408 4753 ft 244 kts 188°
2026-05-04 15:30 13.51234 100.69482 7945 ft 295 kts 187°
2026-05-04 15:30 13.44966 100.70051 10746 ft 320 kts 158°
2026-05-04 15:31 13.40544 100.72004 11728 ft 372 kts 156°
2026-05-04 15:31 13.38013 100.73016 12041 ft 402 kts 158°
2026-05-04 15:32 13.29463 100.76285 14259 ft 439 kts 158°
2026-05-04 15:32 13.20498 100.79700 17106 ft 455 kts 159°
2026-05-04 15:33 13.14510 100.81967 18782 ft 467 kts 159°
2026-05-04 15:34 13.05164 100.85499 21124 ft 486 kts 159°
2026-05-04 15:34 13.01974 100.86704 21889 ft 492 kts 159°
2026-05-04 15:34 12.95445 100.89172 23346 ft 505 kts 159°
2026-05-04 15:35 12.88758 100.91700 24779 ft 517 kts 160°
2026-05-04 15:35 12.85392 100.92969 25503 ft 523 kts 160°
2026-05-04 15:35 12.81953 100.94267 26198 ft 529 kts 160°
2026-05-04 15:36 12.74920 100.96928 27653 ft 540 kts 160°
2026-05-04 15:36 12.71410 100.98256 28528 ft 542 kts 160°
2026-05-04 15:36 12.67851 100.99541 29657 ft 540 kts 162°
2026-05-04 15:37 12.64307 101.00700 30865 ft 535 kts 164°
2026-05-04 15:37 12.60745 101.01739 32046 ft 531 kts 165°
2026-05-04 15:37 12.57167 101.02734 33190 ft 528 kts 165°
2026-05-04 15:37 12.53651 101.03716 34453 ft 521 kts 165°
2026-05-04 15:38 12.50198 101.04699 35771 ft 513 kts 165°
2026-05-04 15:38 12.46752 101.05685 36851 ft 508 kts 165°
2026-05-04 15:38 12.43339 101.06660 37046 ft 518 kts 165°
2026-05-04 15:38 12.39875 101.07617 36860 ft 511 kts 167°
2026-05-04 15:39 12.32918 101.08656 36869 ft 498 kts 179°
2026-05-04 15:40 12.22440 101.08586 36890 ft 505 kts 181°
2026-05-04 15:40 12.15461 101.08536 36816 ft 500 kts 181°
2026-05-04 15:41 12.08457 101.08498 36884 ft 503 kts 181°
2026-05-04 15:41 12.01487 101.08458 36843 ft 500 kts 181°
2026-05-04 15:42 11.94482 101.08408 36863 ft 500 kts 181°
2026-05-04 15:42 11.87516 101.08349 36858 ft 500 kts 181°
2026-05-04 15:43 11.80506 101.08296 36848 ft 501 kts 181°
2026-05-04 15:43 11.73503 101.08240 36863 ft 502 kts 181°
2026-05-04 15:44 11.66542 101.08262 36832 ft 501 kts 178°
2026-05-04 15:44 11.59575 101.09030 36870 ft 503 kts 171°
2026-05-04 15:45 11.52686 101.10332 37215 ft 502 kts 170°
2026-05-04 15:45 11.49272 101.10973 38120 ft 500 kts 170°
2026-05-04 15:45 11.45809 101.11610 38760 ft 504 kts 170°
2026-05-04 15:45 11.42378 101.12236 38879 ft 506 kts 170°
2026-05-04 15:46 11.38897 101.12872 38811 ft 498 kts 170°
2026-05-04 15:46 11.32182 101.14102 38891 ft 487 kts 170°
2026-05-04 15:47 11.25414 101.15357 38924 ft 497 kts 170°
2026-05-04 15:47 11.18538 101.16636 38873 ft 509 kts 170°
2026-05-04 15:48 11.11453 101.17945 38892 ft 519 kts 170°
2026-05-04 15:48 11.00866 101.19911 38824 ft 504 kts 170°
2026-05-04 15:49 10.94009 101.21180 38910 ft 505 kts 170°
2026-05-04 15:49 10.87021 101.22478 38867 ft 506 kts 170°
2026-05-04 15:50 10.80097 101.23762 38884 ft 503 kts 170°
2026-05-04 15:50 10.73187 101.25039 38890 ft 506 kts 170°
2026-05-04 15:51 10.66242 101.26321 38858 ft 505 kts 170°
2026-05-04 15:51 10.59285 101.27605 38895 ft 507 kts 170°
2026-05-04 15:52 10.52342 101.28886 38863 ft 505 kts 170°
2026-05-04 15:52 10.45440 101.30160 38884 ft 506 kts 170°
2026-05-04 15:53 10.38471 101.31446 38878 ft 506 kts 170°
2026-05-04 15:53 10.31555 101.32725 38872 ft 505 kts 170°
2026-05-04 15:54 10.24631 101.34007 38871 ft 507 kts 170°
2026-05-04 15:54 10.17625 101.35300 38876 ft 506 kts 169°
2026-05-04 15:55 10.10737 101.36575 38854 ft 505 kts 169°
2026-05-04 15:55 10.03800 101.37857 38865 ft 506 kts 169°
2026-05-04 15:56 9.96874 101.39137 38849 ft 504 kts 169°
2026-05-04 15:56 9.89939 101.40419 38862 ft 507 kts 169°
2026-05-04 15:57 9.82929 101.41715 38858 ft 508 kts 169°
2026-05-04 15:57 9.75982 101.43001 38845 ft 507 kts 169°
2026-05-04 15:58 9.68999 101.44292 38873 ft 508 kts 169°
2026-05-04 15:58 9.62035 101.45578 38854 ft 507 kts 169°
2026-05-04 15:59 9.55098 101.46860 38851 ft 507 kts 169°
2026-05-04 15:59 9.48141 101.48144 38872 ft 508 kts 169°
2026-05-04 16:00 9.41165 101.49425 38855 ft 508 kts 169°
2026-05-04 16:00 9.34191 101.50711 38849 ft 507 kts 169°
2026-05-04 16:01 9.27243 101.51991 38851 ft 506 kts 169°
2026-05-04 16:01 9.20293 101.53268 38865 ft 507 kts 169°
2026-05-04 16:02 9.13365 101.54546 38857 ft 506 kts 169°
2026-05-04 16:03 9.02940 101.56465 38863 ft 506 kts 169°
2026-05-04 16:03 8.95988 101.57744 38862 ft 505 kts 168°
2026-05-04 16:04 8.89095 101.59013 38859 ft 505 kts 168°
2026-05-04 16:04 8.78687 101.60923 38855 ft 505 kts 168°
2026-05-04 16:05 8.71723 101.62202 38857 ft 507 kts 169°
2026-05-04 16:06 8.61322 101.64113 38863 ft 506 kts 168°
2026-05-04 16:07 8.47400 101.66671 38872 ft 506 kts 169°
2026-05-04 16:08 8.33527 101.69221 38866 ft 506 kts 169°
2026-05-04 16:09 8.16172 101.72410 38862 ft 507 kts 169°
2026-05-04 16:10 8.02242 101.74962 38862 ft 506 kts 168°
2026-05-04 16:11 7.88350 101.77534 38871 ft 506 kts 168°
2026-05-04 16:12 7.67456 101.81396 38854 ft 508 kts 168°
2026-05-04 16:13 7.53577 101.83965 38860 ft 506 kts 168°
2026-05-04 16:14 7.39663 101.86538 38865 ft 506 kts 168°
2026-05-04 16:16 7.22269 101.89312 38828 ft 507 kts 180°
2026-05-04 16:17 7.04569 101.88360 38899 ft 507 kts 180°
2026-05-04 16:18 6.90373 101.87917 38877 ft 507 kts 180°
2026-05-04 16:19 6.72687 101.87336 38890 ft 508 kts 180°
2026-05-04 16:20 6.55018 101.86760 38873 ft 506 kts 181°
2026-05-04 16:22 6.37316 101.86182 38883 ft 506 kts 181°
2026-05-04 16:23 6.16110 101.85493 38879 ft 507 kts 181°
2026-05-04 16:25 5.94908 101.84805 38887 ft 506 kts 181°
2026-05-04 16:26 5.70210 101.84003 38904 ft 506 kts 181°
2026-05-04 16:28 5.52540 101.83431 38969 ft 505 kts 181°
2026-05-04 16:29 5.27832 101.82629 38941 ft 507 kts 181°
2026-05-04 16:31 5.10154 101.82056 38903 ft 507 kts 181°
2026-05-04 16:32 4.89062 101.81373 38900 ft 506 kts 181°
2026-05-04 16:33 4.75088 101.80922 38895 ft 492 kts 181°
2026-05-04 16:34 4.64713 101.80586 38914 ft 499 kts 181°
2026-05-04 16:35 4.43949 101.79916 38907 ft 496 kts 181°
2026-05-04 16:36 4.33523 101.79579 38821 ft 496 kts 181°
2026-05-04 16:37 4.26638 101.79356 37709 ft 495 kts 181°
2026-05-04 16:37 4.23215 101.79247 37053 ft 497 kts 181°
2026-05-04 16:37 4.16265 101.79023 35681 ft 501 kts 181°
2026-05-04 16:38 4.09192 101.78793 33900 ft 513 kts 181°
2026-05-04 16:39 3.98387 101.78444 31736 ft 522 kts 181°
2026-05-04 16:39 3.91072 101.78209 30546 ft 524 kts 181°
2026-05-04 16:40 3.83782 101.77973 29288 ft 526 kts 180°
2026-05-04 16:40 3.76438 101.77737 27927 ft 529 kts 180°
2026-05-04 16:41 3.69062 101.77498 26564 ft 531 kts 180°
2026-05-04 16:41 3.58102 101.77145 25265 ft 517 kts 180°
2026-05-04 16:42 3.47404 101.77219 23657 ft 506 kts 166°
2026-05-04 16:43 3.41169 101.80160 22562 ft 496 kts 143°
2026-05-04 16:43 3.35641 101.84244 21500 ft 492 kts 142°
2026-05-04 16:43 3.32853 101.86217 20998 ft 490 kts 144°
2026-05-04 16:44 3.21542 101.93572 19126 ft 477 kts 146°
2026-05-04 16:45 3.15973 101.97070 18209 ft 470 kts 146°
2026-05-04 16:46 3.07734 102.02258 16829 ft 461 kts 146°
2026-05-04 16:46 3.02344 102.05641 15903 ft 451 kts 146°
2026-05-04 16:47 2.97109 102.08931 14906 ft 436 kts 146°
2026-05-04 16:47 2.92066 102.12102 13904 ft 422 kts 146°
2026-05-04 16:48 2.84533 102.16834 12554 ft 422 kts 146°
2026-05-04 16:48 2.82079 102.18376 12100 ft 420 kts 146°
2026-05-04 16:49 2.77181 102.21448 11277 ft 396 kts 146°
2026-05-04 16:49 2.72769 102.24194 10540 ft 346 kts 146°
2026-05-04 16:50 2.68930 102.26558 9975 ft 303 kts 146°
2026-05-04 16:50 2.65041 102.26997 9610 ft 298 kts 200°
2026-05-04 16:51 2.61452 102.24939 9099 ft 290 kts 215°
2026-05-04 16:51 2.59856 102.23726 8886 ft 294 kts 218°
2026-05-04 16:51 2.56671 102.21107 8417 ft 292 kts 220°
2026-05-04 16:52 2.53572 102.18464 7970 ft 290 kts 220°
2026-05-04 16:52 2.52044 102.17151 7727 ft 291 kts 220°
2026-05-04 16:53 2.48984 102.14513 7250 ft 289 kts 221°
2026-05-04 16:53 2.44462 102.10595 6554 ft 284 kts 221°
2026-05-04 16:54 2.42971 102.09294 6306 ft 283 kts 221°
2026-05-04 16:55 2.37890 102.03913 5837 ft 248 kts 262°
2026-05-04 16:55 2.38576 102.00650 5196 ft 246 kts 294°
2026-05-04 16:56 2.39912 101.97460 4450 ft 250 kts 293°
2026-05-04 16:56 2.42134 101.93398 3884 ft 233 kts 313°
2026-05-04 16:57 2.43214 101.92234 3700 ft 228 kts 316°
2026-05-04 16:57 2.45356 101.90009 3438 ft 214 kts 315°
2026-05-04 16:58 2.48449 101.87155 3339 ft 190 kts 325°
2026-05-04 16:58 2.49538 101.86400 3344 ft 193 kts 327°
2026-05-04 16:59 2.51793 101.84929 3399 ft 191 kts 328°
2026-05-04 17:00 2.56207 101.81956 3336 ft 193 kts 328°
2026-05-04 17:00 2.59523 101.79726 2718 ft 181 kts 328°
2026-05-04 17:01 2.61475 101.78419 2291 ft 159 kts 328°
2026-05-04 17:01 2.63264 101.77224 1904 ft 154 kts 328°
2026-05-04 17:02 2.65045 101.76025 1504 ft 154 kts 328°
2026-05-04 17:02 2.66820 101.74832 1103 ft 154 kts 328°
2026-05-04 17:03 2.67727 101.74238 918 ft 154 kts 327°
2026-05-04 17:03 2.68617 101.73637 714 ft 155 kts 327°
2026-05-04 17:03 2.70394 101.72430 342 ft 157 kts 327°
2026-05-04 17:04 2.72151 101.71260 81 ft 136 kts 326°
2026-05-04 17:04 2.72887 101.70762 80 ft 34 kts 326°
2026-05-04 17:05 2.73208 101.70679 80 ft 15 kts 357°
2026-05-04 17:05 2.73390 101.70655 80 ft 14 kts 327°
2026-05-04 17:06 2.73597 101.70512 80 ft 13 kts 327°
2026-05-04 17:06 2.73644 101.70483 80 ft 5 kts 332°
2026-05-04 17:07 2.73739 101.70570 80 ft 15 kts 56°
2026-05-04 17:07 2.73784 101.70636 80 ft 18 kts 56°
2026-05-04 17:07 2.73892 101.70794 80 ft 22 kts 56°
2026-05-04 17:07 2.73988 101.70936 80 ft 26 kts 56°
2026-05-04 17:08 2.74097 101.71098 80 ft 29 kts 56°
2026-05-04 17:08 2.74249 101.71322 80 ft 12 kts 56°
2026-05-04 17:08 2.74304 101.71404 80 ft 16 kts 56°
2026-05-04 17:09 2.74349 101.71455 80 ft 7 kts 18°
2026-05-04 17:09 2.74403 101.71439 80 ft 8 kts 326°
2026-05-04 17:09 2.74449 101.71407 80 ft 5 kts 327°
2026-05-04 17:10 2.74493 101.71420 80 ft 3 kts 43°
2026-05-04 17:10 2.74510 101.71441 80 ft 0 kts 55°
2026-05-04 17:11 2.74511 101.71442 80 ft 0 kts 56°